Location: Tel Aviv
(32.0670°N, 34.7670°E)
Time: 07:51:45
(UTC+03:00)

DUCHIFAT 1 - Pass Details

Date: 01 March 2024
Orbit: 543 x 559 km, 98.1° (Epoch: 17 April)

Event Time Altitude Azimuth Distance (km) Brightness Sun altitude
Rises 04:25:27 0° 1° (N) 2,709 ? -22.5°
Reaches altitude 10° 04:27:41 10° 353° (N) 1,814 ? -22.0°
Enters shadow 04:28:21 14° 348° (NNW) 1,563 ? -21.9°
